• MPC Preparation (Info)

  • MPEC 2023-G07 : 2023 FT13

    The following Minor Planet Electronic Circular may be linked-to from your own Web pages, but must not otherwise be redistributed electronically.

    A form allowing access to any MPEC is at the bottom of this page.


    Read MPEC 2023-G06 Read MPEC 2023-G08


    M.P.E.C. 2023-G07                                 Issued 2023 April 1, 08:59 UT
    
         The Minor Planet Electronic Circulars contain information on unusual
             minor planets, routine data on comets and natural satellites,
             and occasional editorial announcements.  They are published
        on behalf of Division F of the International Astronomical Union by the
              Minor Planet Center, Smithsonian Astrophysical Observatory,
                              Cambridge, MA 02138, U.S.A.
    			  
                 Prepared using the Tamkin Foundation Computer Network
    
                                  MPC@CFA.HARVARD.EDU
                URL https://www.minorplanetcenter.net/    ISSN 1523-6714
    
                                    2023 FT13                                
    
    
    Observations:
         K23F13T*1C2023 03 29.24826511 26 49.031+52 35 14.06         20.71GVEG007G96
         K23F13T 1C2023 03 29.25350011 26 47.890+52 34 40.69         20.79GVEG007G96
         K23F13T 1C2023 03 29.25874511 26 46.784+52 34 07.36         20.52GVEG007G96
         K23F13T 1C2023 03 29.26400311 26 45.632+52 33 33.70         20.77GVEG007G96
         K23F13T KC2023 03 29.28123 11 26 40.64 +52 31 38.4          21.4 VqEG007734
         K23F13T KC2023 03 29.28848 11 26 39.09 +52 30 46.5          20.9 VqEG007734
         K23F13T KC2023 03 29.29574 11 26 37.65 +52 29 58.1          21.3 VqEG007734
         K23F13T KC2023 03 29.37149211 26 22.852+52 21 55.01         20.75GVEG007I52
         K23F13T KC2023 03 29.37365211 26 22.430+52 21 40.72         21.21GVEG007I52
         K23F13T KC2023 03 29.37580011 26 22.006+52 21 26.46         20.98GVEG007I52
         K23F13T KC2023 03 29.37794211 26 21.534+52 21 12.10         20.86GVEG007I52
         K23F13T KC2023 03 30.12686311 24 21.226+50 59 42.97         20.23GVEG007I52
         K23F13T KC2023 03 30.12893811 24 20.887+50 59 29.26         20.74GVEG007I52
         K23F13T KC2023 03 30.13101611 24 20.477+50 59 15.25         21.18GVEG007I52
         K23F13T KC2023 03 30.13309711 24 20.095+50 59 02.90         20.57GVEG007I52
         K23F13T KC2023 03 30.15516311 24 13.66 +50 56 41.3          20.7 VVEG007H21
         K23F13T KC2023 03 30.16076611 24 12.53 +50 56 04.3          20.7 VVEG007H21
         K23F13T KC2023 03 30.16636611 24 11.46 +50 55 28.0          20.6 VVEG007H21
         K23F13T KC2023 03 30.22665011 24 01.656+50 48 55.58         20.52GVEG007I52
         K23F13T KC2023 03 30.22882911 24 01.210+50 48 41.08         20.43GVEG007I52
         K23F13T KC2023 03 30.23100711 24 00.702+50 48 26.64         20.32GVEG007I52
         K23F13T KC2023 03 30.23318511 24 00.342+50 48 12.60         20.81GVEG007I52
         K23F13T KC2023 03 30.40683411 23 26.160+50 28 41.30         20.86GVEG007I52
         K23F13T KC2023 03 30.40953811 23 25.720+50 28 22.70         21.20GVEG007I52
         K23F13T KC2023 03 30.41224211 23 25.230+50 28 03.80         21.11GVEG007I52
         K23F13T KC2023 03 30.41836711 23 23.990+50 27 20.90               VEG007I52
         K23F13T KC2023 04 01.18328011 19 01.66 +47 05 13.7          20.3 GXEG007858
         K23F13T KC2023 04 01.19864411 18 59.02 +47 03 26.5          20.7 GXEG007858
    
    Observer details:
    734 Farpoint Observatory, Eskridge.  Observers D. Cromer, G. Hug, D. Goodin,
        R. Valentine.  Measurer D. Cromer.  0.70-m f/3.0 reflector + CCD.
    858 Tebbutt Observatory, Edgewood.  Observer F. B. Zoltowski.  0.51-m f/8.1
        Schmidt-Cassegrain + CCD.
    G96 Mt. Lemmon Survey.  Observer G. J. Leonard.  Measurers E. J. Christensen,
        D. Fay, J. B. Fazekas, D. C. Fuls, A. R. Gibbs, A. D. Grauer, H. Groeller,
        J. K. Hogan, R. A. Kowalski, S. M. Larson, G. J. Leonard, D. Rankin, R. L.
        Seaman, A. Serrano, F. C. Shelly, K. W. Wierzchos.  1.5-m reflector + 10K
        CCD.
    H21 Astronomical Research Observatory, Westfield.  Observer R. Holmes.
        Measurers T. Linder, R. Holmes, L. Horn.  0.76-m f/3.0 astrograph + CCD.
    I52 Steward Observatory, Mt. Lemmon Station.  Observer J. B. Fazekas.
        Measurers E. J. Christensen, D. Fay, J. B. Fazekas, D. C. Fuls, A. R.
        Gibbs, A. D. Grauer, H. Groeller, J. K. Hogan, R. A. Kowalski, S. M.
        Larson, G. J. Leonard, D. Rankin, R. L. Seaman, A. Serrano, F. C. Shelly,
        K. W. Wierzchos.  1.0-m prime focus + CCD.
    
    Orbital elements:
    2023 FT13                                                Earth MOID = 0.1027 AU
    Epoch 2023 Feb. 25.0 TT = JDT 2460000.5                 Veres                   
    M 355.08131              (2000.0)            P               Q                  
    n   0.67583369     Peri.  135.57237     -0.92924600     -0.35441122             
    a   1.2860055      Node    24.25895     +0.22638644     -0.76946047             
    e   0.1717252      Incl.   14.71697     +0.29197782     -0.53134102             
    P   1.46           H   23.29          G   0.15           U   8                  
    Residuals in seconds of arc
    230329 G96  0.0   0.0     230329 I52  0.1-  0.3-    230330 I52  0.6-  0.3-
    230329 G96  0.1-  0.0     230330 I52  0.5-  0.0     230330 I52  0.1+  0.0
    230329 G96  0.1+  0.1+    230330 I52  0.0   0.4-    230330 I52  0.4-  0.1+
    230329 G96  0.1-  0.1+    230330 I52  0.1-  1.1-    230330 I52  0.2+  0.2+
    230329 734 (0.3+  4.2+)   230330 I52  0.0   0.1-    230330 I52  0.3+  0.1-
    230329 734  0.1+  0.6-    230330 H21  0.0   0.1+    230330 I52  0.8-  0.7-
    230329 734 (0.8+  1.8-)   230330 H21  0.2-  0.2-    230401 858  0.1+  0.2-
    230329 I52  0.2-  0.1+    230330 H21  0.2+  0.2+    230401 858  0.4+  0.0
    230329 I52  0.0   0.0     230330 I52  0.1+  0.0
    230329 I52  0.2+  0.1-    230330 I52  0.0   0.2-
    
    Ephemeris:
    2023 FT13                a,e,i = 1.29, 0.17, 15                  q = 1.0652
    Date    TT    R. A. (2000) Decl.     Delta      r    Elong.  Phase     V
    2023 03 02    14 15 53.5 +77 02 27   0.2085  1.0653   105.4    63.7    22.3
    ...
    2023 03 17    12 22 12.9 +69 03 23   0.1658  1.0688   112.3    59.4    21.7
    ...
    2023 03 25    11 41 30.6 +59 30 03   0.1458  1.0747   118.7    54.5    21.3
    ...
    2023 03 31    11 21 56.2 +49 22 03   0.1350  1.0808   124.4    49.6    21.0
    2023 04 01    11 19 26.1 +47 26 41   0.1337  1.0820   125.4    48.8    20.9
    2023 04 02    11 17 07.5 +45 27 47   0.1326  1.0832   126.4    48.0    20.9
    ...
    2023 04 08    11 06 45.7 +32 38 46   0.1296  1.0912   131.5    43.4    20.7
    ...
    2023 04 16    11 00 15.3 +15 07 40   0.1375  1.1039   134.4    40.5    20.8
    ...
    2023 05 01    11 03 27.9 -09 48 00   0.1842  1.1329   129.3    43.5    21.6
    
    M. P. C. Staff               (C) Copyright 2023 MPC           M.P.E.C. 2023-G07
    


    Read MPEC 2023-G06 Read MPEC 2023-G08


    MPEC number:

    Enter an MPEC number in one of the following forms:

    • 1997-B01 (the full form)
    • J97B01 (the packed version of the full form)
    • B01 (the abbreviated form)